Location: DARK SKY Beskydy - Park tmavé oblohy, www.darkskybeskydy.cz
(49.4926°N, 18.5016°E)
Time: 04:36:03
(UTC+02:00)

Vanguard 1 Rocket - All Passes

Search period start: 13 July 2024 00:00
Search period end: 23 July 2024 00:00
Orbit: 650 x 4219 km, 34.3° (Epoch: 12 July)

Date Brightness Start Highest point End Pass type
(mag) Time Alt. Az. Time Alt. Az. Time Alt. Az.
13 Jul - 01:57:06 10° WSW 02:05:08 28° SSW 02:18:18 10° SE visible
13 Jul - 04:24:38 10° WSW 04:31:54 15° SSW 04:41:15 10° S daylight
13 Jul - 22:23:15 10° SW 22:28:01 24° SSE 22:35:10 10° ESE visible
14 Jul - 00:45:49 10° WSW 00:52:40 30° S 01:04:05 10° SE visible
14 Jul - 03:11:01 10° WSW 03:18:50 20° SSW 03:30:05 10° SSE visible
14 Jul - 21:13:29 10° S 21:16:44 16° SSE 21:20:51 10° ESE daylight
14 Jul - 23:34:55 10° SW 23:40:37 28° S 23:49:48 10° ESE visible
15 Jul - 01:58:49 10° WSW 02:06:03 24° SSW 02:17:14 10° SSE visible
15 Jul - 04:31:07 10° SW 04:32:38 10° SSW 04:34:13 10° SSW daylight
15 Jul - 22:24:22 10° SW 22:28:56 23° SSE 22:35:42 10° ESE visible
16 Jul - 00:47:20 10° WSW 00:53:38 25° S 01:03:39 10° SE visible
16 Jul - 03:13:48 10° SW 03:19:40 15° SSW 03:27:19 10° S visible
16 Jul - 21:14:17 10° SSW 21:17:35 17° SSE 21:21:49 10° ESE daylight
16 Jul - 23:36:18 10° SW 23:41:36 25° S 23:49:50 10° SE visible
17 Jul - 02:00:52 10° WSW 02:07:00 18° SSW 02:15:44 10° SSE visible
17 Jul - 22:25:36 10° SW 22:29:56 22° S 22:36:09 10° SE visible
18 Jul - 00:49:04 10° WSW 00:54:38 21° SSW 01:02:56 10° SSE visible
18 Jul - 21:15:16 10° SSW 21:18:32 17° SSE 21:22:40 10° SE visible
18 Jul - 23:37:49 10° SW 23:42:38 21° S 23:49:43 10° SE visible
19 Jul - 02:03:43 10° SW 02:07:58 13° SSW 02:13:19 10° S visible
19 Jul - 20:05:47 10° S 20:07:17 11° SSE 20:08:53 10° SE daylight
19 Jul - 22:26:57 10° SW 22:30:57 20° S 22:36:29 10° SE visible
20 Jul - 00:51:10 10° SW 00:55:40 16° SSW 01:01:45 10° SSE visible
20 Jul - 21:16:23 10° SSW 21:19:30 17° S 21:23:23 10° SE visible
20 Jul - 23:39:34 10° SW 23:43:42 17° S 23:49:19 10° SSE visible
21 Jul - 20:06:16 10° S 20:08:12 12° SSE 20:10:19 10° SE daylight
21 Jul - 22:28:28 10° SW 22:32:00 17° S 22:36:37 10° SE visible
22 Jul - 00:54:22 10° SW 00:56:43 11° SSW 00:59:24 10° S visible
22 Jul - 21:17:37 10° SW 21:20:31 16° S 21:23:59 10° SE visible
22 Jul - 23:41:48 10° SW 23:44:45 13° SSW 23:48:23 10° SSE visible
